Time,TemperatureF,DewpointF,PressureIn,WindDirection,WindDirectionDegrees,WindSpeedMPH,WindSpeedGustMPH,Humidity,HourlyPrecipIn,Conditions,Clouds,dailyrainin,SolarRadiationWatts/m^2,SoftwareType,DateUTC
2013-06-14 00:12:00,41.0,31.0,-100.00,WNW,296,8.0,10.0,67,0.00,,,0.08,0.000000,,2013-06-14 06:12:00,
2013-06-14 00:22:00,41.0,31.0,-100.00,WNW,296,8.0,10.0,67,0.00,,,0.08,0.000000,,2013-06-14 06:22:00,
2013-06-14 00:33:00,41.0,31.0,-100.00,WNW,296,8.0,10.0,67,0.00,,,0.08,0.000000,,2013-06-14 06:33:00,
2013-06-14 00:43:00,41.0,31.0,-100.00,WNW,296,8.0,10.0,67,0.00,,,0.08,0.000000,,2013-06-14 06:43:00,
2013-06-14 00:52:00,41.0,31.0,-100.00,WNW,296,8.0,10.0,67,0.00,,,0.08,0.000000,,2013-06-14 06:52:00,
2013-06-14 01:22:00,41.0,32.0,-100.00,WNW,289,11.0,13.0,71,0.00,,,-99.99,0.000000,,2013-06-14 07:22:00,
2013-06-14 01:33:00,41.0,32.0,-100.00,WNW,289,11.0,13.0,71,0.00,,,-99.99,0.000000,,2013-06-14 07:33:00,
2013-06-14 01:43:00,41.0,32.0,-100.00,WNW,289,11.0,13.0,71,0.00,,,-99.99,0.000000,,2013-06-14 07:43:00,
2013-06-14 01:53:00,41.0,32.0,-100.00,WNW,289,11.0,13.0,71,0.00,,,-99.99,0.000000,,2013-06-14 07:53:00,
2013-06-14 02:22:00,38.0,29.0,-100.00,East,83,2.0,14.0,70,0.00,,,0.08,0.000000,,2013-06-14 08:22:00,
2013-06-14 02:33:00,38.0,29.0,-100.00,East,83,2.0,14.0,70,0.00,,,0.08,0.000000,,2013-06-14 08:33:00,
2013-06-14 02:43:00,38.0,29.0,-100.00,East,83,2.0,14.0,70,0.00,,,0.08,0.000000,,2013-06-14 08:43:00,
2013-06-14 02:53:00,38.0,29.0,-100.00,East,83,2.0,14.0,70,0.00,,,0.08,0.000000,,2013-06-14 08:53:00,
2013-06-14 03:22:00,39.0,27.0,-100.00,NNW,339,2.0,13.0,63,0.00,,,0.08,0.000000,,2013-06-14 09:22:00,
2013-06-14 03:33:00,39.0,27.0,-100.00,NNW,339,2.0,13.0,63,0.00,,,0.08,0.000000,,2013-06-14 09:33:00,
2013-06-14 03:43:00,39.0,27.0,-100.00,NNW,339,2.0,13.0,63,0.00,,,0.08,0.000000,,2013-06-14 09:43:00,
2013-06-14 03:52:00,39.0,27.0,-100.00,NNW,339,2.0,13.0,63,0.00,,,0.08,0.000000,,2013-06-14 09:52:00,
2013-06-14 04:22:00,38.0,29.0,-100.00,NW,305,7.0,12.0,69,0.00,,,0.08,0.000000,,2013-06-14 10:22:00,
2013-06-14 04:34:00,38.0,29.0,-100.00,NW,305,7.0,12.0,69,0.00,,,0.08,0.000000,,2013-06-14 10:34:00,
2013-06-14 04:43:00,38.0,29.0,-100.00,NW,305,7.0,12.0,69,0.00,,,0.08,0.000000,,2013-06-14 10:43:00,
2013-06-14 04:52:00,38.0,29.0,-100.00,NW,305,7.0,12.0,69,0.00,,,0.08,0.000000,,2013-06-14 10:52:00,
2013-06-14 05:22:00,39.0,30.0,-100.00,NNE,16,2.0,12.0,69,0.00,,,0.08,0.000000,,2013-06-14 11:22:00,
2013-06-14 05:32:00,39.0,30.0,-100.00,NNE,16,2.0,12.0,69,0.00,,,0.08,0.000000,,2013-06-14 11:32:00,
2013-06-14 05:43:00,39.0,30.0,-100.00,NNE,16,2.0,12.0,69,0.00,,,0.08,0.000000,,2013-06-14 11:43:00,
2013-06-14 05:52:00,39.0,30.0,-100.00,NNE,16,2.0,12.0,69,0.00,,,0.08,0.000000,,2013-06-14 11:52:00,
2013-06-14 06:22:00,39.0,30.0,-100.00,NW,304,9.0,13.0,70,0.00,,,0.08,1.000000,,2013-06-14 12:22:00,
2013-06-14 06:32:00,39.0,30.0,-100.00,NW,304,9.0,13.0,70,0.00,,,0.08,1.000000,,2013-06-14 12:32:00,
2013-06-14 06:43:00,39.0,30.0,-100.00,NW,304,9.0,13.0,70,0.00,,,0.08,1.000000,,2013-06-14 12:43:00,
2013-06-14 06:52:00,39.0,30.0,-100.00,NW,304,9.0,13.0,70,0.00,,,0.08,1.000000,,2013-06-14 12:52:00,
2013-06-14 07:22:00,39.0,32.0,-100.00,West,272,4.0,19.0,75,0.00,,,0.08,22.000000,,2013-06-14 13:22:00,
2013-06-14 07:33:00,39.0,32.0,-100.00,West,272,4.0,19.0,75,0.00,,,0.08,22.000000,,2013-06-14 13:33:00,
2013-06-14 07:43:00,39.0,32.0,-100.00,West,272,4.0,19.0,75,0.00,,,0.08,22.000000,,2013-06-14 13:43:00,
2013-06-14 07:52:00,39.0,32.0,-100.00,West,272,4.0,19.0,75,0.00,,,0.08,22.000000,,2013-06-14 13:52:00,
2013-06-14 08:11:00,41.0,31.0,-100.00,NW,322,10.0,18.0,67,0.00,,,0.08,117.000000,,2013-06-14 14:11:00,
2013-06-14 08:22:00,41.0,31.0,-100.00,NW,322,10.0,18.0,67,0.00,,,0.08,117.000000,,2013-06-14 14:22:00,
2013-06-14 08:34:00,41.0,31.0,-100.00,NW,322,10.0,18.0,67,0.00,,,0.08,117.000000,,2013-06-14 14:34:00,
2013-06-14 08:43:00,41.0,31.0,-100.00,NW,322,10.0,18.0,67,0.00,,,0.08,117.000000,,2013-06-14 14:43:00,
2013-06-14 08:52:00,41.0,31.0,-100.00,NW,322,10.0,18.0,67,0.00,,,0.08,117.000000,,2013-06-14 14:52:00,
2013-06-14 09:11:00,43.0,30.0,-100.00,NW,320,13.0,21.0,61,0.00,,,0.08,264.000000,,2013-06-14 15:11:00,
2013-06-14 09:22:00,43.0,30.0,-100.00,NW,320,13.0,21.0,61,0.00,,,0.08,264.000000,,2013-06-14 15:22:00,
2013-06-14 09:33:00,43.0,30.0,-100.00,NW,320,13.0,21.0,61,0.00,,,0.08,264.000000,,2013-06-14 15:33:00,
2013-06-14 09:43:00,43.0,30.0,-100.00,NW,320,13.0,21.0,61,0.00,,,0.08,264.000000,,2013-06-14 15:43:00,
2013-06-14 09:52:00,43.0,30.0,-100.00,NW,320,13.0,21.0,61,0.00,,,0.08,264.000000,,2013-06-14 15:52:00,
2013-06-14 10:22:00,48.0,31.0,-100.00,WNW,290,8.0,25.0,51,0.00,,,0.08,785.000000,,2013-06-14 16:22:00,
2013-06-14 10:32:00,48.0,31.0,-100.00,WNW,290,8.0,25.0,51,0.00,,,0.08,785.000000,,2013-06-14 16:32:00,
2013-06-14 10:43:00,48.0,31.0,-100.00,WNW,290,8.0,25.0,51,0.00,,,0.08,785.000000,,2013-06-14 16:43:00,
2013-06-14 10:52:00,48.0,31.0,-100.00,WNW,290,8.0,25.0,51,0.00,,,0.08,785.000000,,2013-06-14 16:52:00,
2013-06-14 11:11:00,47.0,27.0,-100.00,WNW,295,16.0,24.0,46,0.00,,,0.07,754.000000,,2013-06-14 17:11:00,
2013-06-14 11:22:00,47.0,27.0,-100.00,WNW,295,16.0,24.0,46,0.00,,,0.07,754.000000,,2013-06-14 17:22:00,
2013-06-14 11:34:00,47.0,27.0,-100.00,WNW,295,16.0,24.0,46,0.00,,,0.07,754.000000,,2013-06-14 17:34:00,
2013-06-14 11:43:00,47.0,27.0,-100.00,WNW,295,16.0,24.0,46,0.00,,,0.07,754.000000,,2013-06-14 17:43:00,
2013-06-14 11:53:00,47.0,27.0,-100.00,WNW,295,16.0,24.0,46,0.00,,,0.07,754.000000,,2013-06-14 17:53:00,
2013-06-14 12:22:00,49.0,27.0,-100.00,WNW,282,15.0,28.0,43,0.00,,,0.07,816.000000,,2013-06-14 18:22:00,
2013-06-14 12:32:00,49.0,27.0,-100.00,WNW,282,15.0,28.0,43,0.00,,,0.07,816.000000,,2013-06-14 18:32:00,
2013-06-14 12:42:00,49.0,27.0,-100.00,WNW,282,15.0,28.0,43,0.00,,,0.07,816.000000,,2013-06-14 18:42:00,
2013-06-14 12:52:00,49.0,27.0,-100.00,WNW,282,15.0,28.0,43,0.00,,,0.07,816.000000,,2013-06-14 18:52:00,
2013-06-14 13:21:00,49.0,29.0,-100.00,WSW,246,13.0,24.0,45,0.00,,,0.07,851.000000,,2013-06-14 19:21:00,
2013-06-14 13:32:00,49.0,29.0,-100.00,WSW,246,13.0,24.0,45,0.00,,,0.07,851.000000,,2013-06-14 19:32:00,
2013-06-14 13:43:00,49.0,29.0,-100.00,WSW,246,13.0,24.0,45,0.00,,,0.07,851.000000,,2013-06-14 19:43:00,
2013-06-14 13:53:00,49.0,29.0,-100.00,WSW,246,13.0,24.0,45,0.00,,,0.07,851.000000,,2013-06-14 19:53:00,
2013-06-14 14:11:00,50.0,30.0,-100.00,West,276,9.0,23.0,46,0.00,,,0.07,515.000000,,2013-06-14 20:11:00,
2013-06-14 14:22:00,50.0,30.0,-100.00,West,276,9.0,23.0,46,0.00,,,0.07,515.000000,,2013-06-14 20:22:00,
2013-06-14 14:33:00,50.0,30.0,-100.00,West,276,9.0,23.0,46,0.00,,,0.07,515.000000,,2013-06-14 20:33:00,
2013-06-14 14:43:00,50.0,30.0,-100.00,West,276,9.0,23.0,46,0.00,,,0.07,515.000000,,2013-06-14 20:43:00,
2013-06-14 14:53:00,50.0,30.0,-100.00,West,276,9.0,23.0,46,0.00,,,0.07,515.000000,,2013-06-14 20:53:00,
2013-06-14 15:11:00,55.0,29.0,-100.00,West,280,14.0,21.0,36,0.00,,,-99.99,1022.000000,,2013-06-14 21:11:00,
2013-06-14 15:22:00,55.0,29.0,-100.00,West,280,14.0,21.0,36,0.00,,,-99.99,1022.000000,,2013-06-14 21:22:00,
2013-06-14 15:34:00,55.0,29.0,-100.00,West,280,14.0,21.0,36,0.00,,,-99.99,1022.000000,,2013-06-14 21:34:00,
2013-06-14 15:42:00,55.0,29.0,-100.00,West,280,14.0,21.0,36,0.00,,,-99.99,1022.000000,,2013-06-14 21:42:00,
2013-06-14 15:52:00,55.0,29.0,-100.00,West,280,14.0,21.0,36,0.00,,,-99.99,1022.000000,,2013-06-14 21:52:00,
2013-06-14 16:22:00,53.0,22.0,-100.00,SW,233,20.0,36.0,30,0.00,,,0.01,1007.000000,,2013-06-14 22:22:00,
2013-06-14 16:33:00,53.0,22.0,-100.00,SW,233,20.0,36.0,30,0.00,,,0.01,1007.000000,,2013-06-14 22:33:00,
2013-06-14 16:43:00,53.0,22.0,-100.00,SW,233,20.0,36.0,30,0.00,,,0.01,1007.000000,,2013-06-14 22:43:00,
2013-06-14 16:52:00,53.0,22.0,-100.00,SW,233,20.0,36.0,30,0.00,,,0.01,1007.000000,,2013-06-14 22:52:00,
2013-06-14 17:22:00,52.0,24.0,-100.00,SW,227,20.0,33.0,33,0.00,,,0.00,615.000000,,2013-06-14 23:22:00,
2013-06-14 17:33:00,52.0,24.0,-100.00,SW,227,20.0,33.0,33,0.00,,,0.00,615.000000,,2013-06-14 23:33:00,
2013-06-14 17:43:00,52.0,24.0,-100.00,SW,227,20.0,33.0,33,0.00,,,0.00,615.000000,,2013-06-14 23:43:00,
2013-06-14 17:52:00,52.0,24.0,-100.00,SW,227,20.0,33.0,33,0.00,,,0.00,615.000000,,2013-06-14 23:52:00,
2013-06-14 18:11:00,52.0,24.0,-100.00,SW,233,17.0,30.0,33,0.00,,,0.00,538.000000,,2013-06-15 00:11:00,
2013-06-14 18:22:00,52.0,24.0,-100.00,SW,233,17.0,30.0,33,0.00,,,0.00,538.000000,,2013-06-15 00:22:00,
2013-06-14 18:33:00,52.0,24.0,-100.00,SW,233,17.0,30.0,33,0.00,,,0.00,538.000000,,2013-06-15 00:33:00,
2013-06-14 18:43:00,52.0,24.0,-100.00,SW,233,17.0,30.0,33,0.00,,,0.00,538.000000,,2013-06-15 00:43:00,
2013-06-14 18:52:00,52.0,24.0,-100.00,SW,233,17.0,30.0,33,0.00,,,0.00,538.000000,,2013-06-15 00:52:00,
2013-06-14 18:54:00,51.0,24.0,-100.00,WSW,237,14.0,28.0,34,0.00,,,0.00,665.000000,,2013-06-15 00:54:00,
2013-06-14 19:11:00,51.0,24.0,-100.00,WSW,237,14.0,28.0,34,0.00,,,0.00,665.000000,,2013-06-15 01:11:00,
2013-06-14 19:22:00,51.0,24.0,-100.00,WSW,237,14.0,28.0,34,0.00,,,0.00,665.000000,,2013-06-15 01:22:00,
2013-06-14 19:33:00,51.0,24.0,-100.00,WSW,237,14.0,28.0,34,0.00,,,0.00,665.000000,,2013-06-15 01:33:00,
2013-06-14 19:42:00,51.0,24.0,-100.00,WSW,237,14.0,28.0,34,0.00,,,0.00,665.000000,,2013-06-15 01:42:00,
2013-06-14 20:22:00,51.0,24.0,-100.00,West,276,11.0,26.0,34,0.00,,,0.00,393.000000,,2013-06-15 02:22:00,
2013-06-14 20:33:00,51.0,24.0,-100.00,West,276,11.0,26.0,34,0.00,,,0.00,393.000000,,2013-06-15 02:33:00,
2013-06-14 20:43:00,51.0,24.0,-100.00,West,276,11.0,26.0,34,0.00,,,0.00,393.000000,,2013-06-15 02:43:00,
2013-06-14 20:53:00,51.0,24.0,-100.00,West,276,11.0,26.0,34,0.00,,,0.00,393.000000,,2013-06-15 02:53:00,
2013-06-14 21:23:00,48.0,26.0,-100.00,WNW,289,5.0,22.0,42,0.00,,,0.00,121.000000,,2013-06-15 03:23:00,
2013-06-14 21:32:00,48.0,26.0,-100.00,WNW,289,5.0,22.0,42,0.00,,,0.00,121.000000,,2013-06-15 03:32:00,
2013-06-14 21:43:00,48.0,26.0,-100.00,WNW,289,5.0,22.0,42,0.00,,,0.00,121.000000,,2013-06-15 03:43:00,
2013-06-14 21:52:00,48.0,26.0,-100.00,WNW,289,5.0,22.0,42,0.00,,,0.00,121.000000,,2013-06-15 03:52:00,
2013-06-14 22:22:00,44.0,27.0,-100.00,WNW,295,9.0,18.0,51,0.00,,,0.00,8.000000,,2013-06-15 04:22:00,
2013-06-14 22:34:00,44.0,27.0,-100.00,WNW,295,9.0,18.0,51,0.00,,,0.00,8.000000,,2013-06-15 04:34:00,
2013-06-14 22:43:00,44.0,27.0,-100.00,WNW,295,9.0,18.0,51,0.00,,,0.00,8.000000,,2013-06-15 04:43:00,
2013-06-14 22:53:00,44.0,27.0,-100.00,WNW,295,9.0,18.0,51,0.00,,,0.00,8.000000,,2013-06-15 04:53:00,
2013-06-14 23:12:00,43.0,28.0,-100.00,WNW,302,8.0,17.0,54,0.00,,,0.00,0.000000,,2013-06-15 05:12:00,
2013-06-14 23:22:00,43.0,28.0,-100.00,WNW,302,8.0,17.0,54,0.00,,,0.00,0.000000,,2013-06-15 05:22:00,
2013-06-14 23:34:00,43.0,28.0,-100.00,WNW,302,8.0,17.0,54,0.00,,,0.00,0.000000,,2013-06-15 05:34:00,
2013-06-14 23:42:00,43.0,28.0,-100.00,WNW,302,8.0,17.0,54,0.00,,,0.00,0.000000,,2013-06-15 05:42:00,
2013-06-14 23:52:00,43.0,28.0,-100.00,WNW,302,8.0,17.0,54,0.00,,,0.00,0.000000,,2013-06-15 05:52:00,